Location: Northcutt
(34.7304°N, 84.4305°W)
Time: 03:46:55
(UTC+00:00)

Vanguard 2 - Pass Details

Date: 07 October 2022
Orbit: 553 x 2933 km, 32.9° (Epoch: 05 December)

Event Time Altitude Azimuth Distance (km) Brightness Sun altitude
Rises 22:13:33 0° 282° (WNW) 5,611 13.2 11.2°
Reaches altitude 10° 22:16:53 10° 279° (W) 4,869 13.1 10.6°
Maximum altitude 22:31:27 58° 205° (SSW) 3,163 11.1 7.7°
Drops below altitude 10° 22:48:42 10° 133° (SE) 5,645 11.6 4.2°
Sets 22:52:57 0° 129° (SE) 6,519 11.9 3.3°
